Stinnett, TX

8:37 PM CST on February 24, 2017 (GMT -0600)
Pampa / Mesa Vista

Weather History for KBPC - February, 2013

Change the Weather History Date:

Saturday, February 9, 2013

  Actual Average (KBGD) Record (KBGD)
Temperature  
Mean Temperature 48 °F -  
Max Temperature 60 °F 50 °F 81 °F (1976)
Min Temperature 37 °F 28 °F 1 °F (2011)
Degree Days  
Heating Degree Days 16    
Moisture  
Dew Point 26 °F    
Average Humidity 45    
Maximum Humidity 82    
Minimum Humidity 22    
Precipitation  
Precipitation 0.00 in - - ()
Sea Level Pressure  
Sea Level Pressure 29.75 in    
Wind  
Wind Speed 13 mph (South)    
Max Wind Speed 32 mph    
Max Gust Speed 45 mph    
Visibility 10 miles    
Events      
Averages and records for this station are not official NWS values.
T = Trace of Precipitation, MM = Missing Value Source: NWS Daily Summary

Daily Weather History Graph

Daily Weather History Graph

Search for Another Location

Airport or City:

Trip Planner

Search our weather history database for the weather conditions in past years. The results will help you decide how hot, cold, wet, or windy it might be!

Date:

Astronomy

Feb. 09, 2013 Rise Set
Actual Time 7:37 AM CST 6:19 PM CST
Civil Twilight 7:10 AM CST 6:46 PM CST
Nautical Twilight 6:40 AM CST 7:16 PM CST
Astronomical Twilight 6:10 AM CST 7:46 PM CST
Moon 6:50 AM CST (2/9) 6:03 PM CST (2/9)
Length of Visible Light 11h 35m
Length of Day
10h 42m
Waning Crescent, 0% of the Moon is Illuminated
Feb 9
Waning Crescent
Feb 10
New
Feb 17
First Quarter
Feb 25
Full
Mar 4
Last Quarter

Hourly Weather History & Observations

Time (CST) Temp. Windchill Dew Point Humidity Pressure Visibility Wind Dir Wind Speed Gust Speed Precip Events Conditions
12:15 AM 41.0 °F 35.8 °F 17.6 °F 39% 30.01 in 10.0 mi SSE 8.1 mph - N/A   Clear
12:35 AM 41.0 °F 35.2 °F 17.6 °F 39% 30.00 in 10.0 mi SSE 9.2 mph - N/A   Clear
1:15 AM 39.2 °F 35.9 °F 17.6 °F 42% 29.99 in 10.0 mi ESE 4.6 mph - N/A   Clear
1:35 AM 37.4 °F 34.9 °F 17.6 °F 45% 29.98 in 10.0 mi East 3.5 mph - N/A   Clear
1:55 AM 37.4 °F 34.9 °F 17.6 °F 45% 29.98 in 10.0 mi SSE 3.5 mph - N/A   Clear
2:15 AM 37.4 °F 32.8 °F 19.4 °F 48% 29.97 in 10.0 mi SE 5.8 mph - N/A   Clear
2:35 AM 37.4 °F 32.8 °F 19.4 °F 48% 29.97 in 10.0 mi SSE 5.8 mph - N/A   Clear
2:55 AM 37.4 °F 33.8 °F 17.6 °F 45% 29.96 in 10.0 mi SSE 4.6 mph - N/A   Clear
3:15 AM 37.4 °F 34.9 °F 17.6 °F 45% 29.95 in 10.0 mi South 3.5 mph - N/A   Clear
3:35 AM 37.4 °F 33.8 °F 17.6 °F 45% 29.95 in 10.0 mi South 4.6 mph - N/A   Clear
3:55 AM 41.0 °F 34.7 °F 17.6 °F 39% 29.94 in 10.0 mi SSE 10.4 mph - N/A   Clear
4:15 AM 41.0 °F 37.1 °F 17.6 °F 39% 29.93 in 10.0 mi South 5.8 mph - N/A   Clear
4:35 AM 37.4 °F 32.8 °F 17.6 °F 45% 29.92 in 10.0 mi South 5.8 mph - N/A   Clear
5:15 AM 37.4 °F 32.8 °F 19.4 °F 48% 29.90 in 10.0 mi SE 5.8 mph - N/A   Clear
5:35 AM 39.2 °F 33.6 °F 19.4 °F 45% 29.89 in 10.0 mi South 8.1 mph - N/A   Scattered Clouds
5:55 AM 41.0 °F 37.1 °F 19.4 °F 42% 29.89 in 10.0 mi SSE 5.8 mph - N/A   Overcast
6:15 AM 39.2 °F 33.6 °F 19.4 °F 45% 29.88 in 10.0 mi SSE 8.1 mph - N/A   Scattered Clouds
6:35 AM 39.2 °F 37.0 °F 19.4 °F 45% 29.88 in 10.0 mi South 3.5 mph - N/A   Scattered Clouds
6:55 AM 41.0 °F 37.1 °F 19.4 °F 42% 29.87 in 10.0 mi South 5.8 mph - N/A   Overcast
7:15 AM 41.0 °F 38.0 °F 19.4 °F 42% 29.87 in 10.0 mi SSE 4.6 mph - N/A   Scattered Clouds
7:35 AM 41.0 °F 35.8 °F 21.2 °F 45% 29.86 in 10.0 mi SSE 8.1 mph 17.3 mph N/A   Clear
7:55 AM 41.0 °F 37.1 °F 21.2 °F 45% 29.85 in 10.0 mi SSE 5.8 mph - N/A   Clear
8:15 AM 41.0 °F 36.4 °F 21.2 °F 45% 29.85 in 10.0 mi SSE 6.9 mph - N/A   Clear
8:35 AM 42.8 °F 37.5 °F 23.0 °F 46% 29.85 in 10.0 mi SSE 9.2 mph 16.1 mph N/A   Clear
8:55 AM 42.8 °F 37.5 °F 23.0 °F 46% 29.85 in 10.0 mi SSE 9.2 mph - N/A   Clear
9:35 AM 44.6 °F 37.8 °F 24.8 °F 46% 29.84 in 10.0 mi SSE 15.0 mph 21.9 mph N/A   Clear
9:55 AM 46.4 °F 39.5 °F 24.8 °F 43% 29.84 in 10.0 mi South 17.3 mph 23.0 mph N/A   Clear
10:15 AM 48.2 °F - 26.6 °F 43% 29.83 in 10.0 mi South 18.4 mph 28.8 mph N/A   Clear
11:15 AM 53.6 °F - 30.2 °F 41% 29.78 in 10.0 mi South 23.0 mph 33.4 mph N/A   Clear
11:35 AM 53.6 °F - 32.0 °F 44% 29.78 in 10.0 mi South 21.9 mph 28.8 mph N/A   Clear
11:55 AM 55.4 °F - 32.0 °F 41% 29.76 in 10.0 mi South 26.5 mph 31.1 mph N/A   Clear
12:15 PM 55.4 °F - 32.0 °F 41% 29.75 in 10.0 mi South 20.7 mph 33.4 mph N/A   Clear
12:35 PM 57.2 °F - 32.0 °F 38% 29.73 in 10.0 mi South 28.8 mph 34.5 mph N/A   Clear
12:55 PM 57.2 °F - 32.0 °F 38% 29.71 in 10.0 mi South 27.6 mph 38.0 mph N/A   Clear
1:15 PM 59.0 °F - 32.0 °F 36% 29.70 in 10.0 mi South 28.8 mph 34.5 mph N/A   Clear
1:35 PM 59.0 °F - 32.0 °F 36% 29.68 in 10.0 mi South 25.3 mph 32.2 mph N/A   Clear
1:55 PM 59.0 °F - 33.8 °F 39% 29.66 in 10.0 mi South 21.9 mph 33.4 mph N/A   Clear
2:15 PM 59.0 °F - 33.8 °F 39% 29.64 in 10.0 mi South 24.2 mph 34.5 mph N/A   Clear
2:35 PM 60.8 °F - 33.8 °F 36% 29.61 in 10.0 mi South 31.1 mph 38.0 mph N/A   Clear
3:15 PM 60.8 °F - 35.6 °F 39% 29.58 in 10.0 mi SSE 27.6 mph 38.0 mph N/A   Clear
3:35 PM 60.8 °F - 35.6 °F 39% 29.57 in 10.0 mi South 29.9 mph 39.1 mph N/A   Clear
3:55 PM 60.8 °F - 35.6 °F 39% 29.54 in 10.0 mi SSE 32.2 mph 40.3 mph N/A   Clear
4:15 PM 60.8 °F - 35.6 °F 39% 29.53 in 10.0 mi SSE 27.6 mph 41.4 mph N/A   Clear
4:35 PM 60.8 °F - 37.4 °F 42% 29.52 in 10.0 mi SSE 31.1 mph 42.6 mph N/A   Clear
5:15 PM 59.0 °F - 37.4 °F 45% 29.51 in 10.0 mi SSE 29.9 mph 44.9 mph N/A   Clear
5:35 PM 57.2 °F - 41.0 °F 55% 29.50 in 10.0 mi SSE 27.6 mph 44.9 mph N/A   Scattered Clouds
5:55 PM 53.6 °F - 42.8 °F 67% 29.50 in 10.0 mi SSE 29.9 mph 41.4 mph N/A   Scattered Clouds
6:15 PM 50.0 °F - 42.8 °F 76% 29.50 in 10.0 mi SSE 29.9 mph 38.0 mph N/A   Mostly Cloudy
6:35 PM 50.0 °F - 44.6 °F 82% 29.50 in 10.0 mi SSE 32.2 mph 42.6 mph N/A   Overcast
7:15 PM 50.0 °F - 44.6 °F 82% 29.55 in 10.0 mi South 31.1 mph 41.4 mph N/A   Overcast
7:35 PM 50.0 °F - 44.6 °F 82% 29.56 in 10.0 mi South 26.5 mph 35.7 mph N/A   Overcast
7:55 PM 50.0 °F - 44.6 °F 82% 29.58 in 10.0 mi South 21.9 mph 33.4 mph N/A   Overcast
8:15 PM 50.0 °F - 44.6 °F 82% 29.59 in 10.0 mi South 16.1 mph 25.3 mph N/A   Overcast
8:35 PM 51.8 °F - 44.6 °F 76% 29.60 in 10.0 mi SW 15.0 mph 20.7 mph N/A   Overcast
8:55 PM 51.8 °F - 28.4 °F 41% 29.61 in 10.0 mi WSW 21.9 mph 27.6 mph N/A   Overcast
9:35 PM 51.8 °F - 17.6 °F 26% 29.62 in 10.0 mi WSW 23.0 mph 29.9 mph N/A   Overcast
9:55 PM 50.0 °F - 15.8 °F 26% 29.62 in 10.0 mi SW 19.6 mph 25.3 mph N/A   Overcast
10:15 PM 50.0 °F - 12.2 °F 22% 29.63 in 10.0 mi SW 15.0 mph 34.5 mph N/A   Overcast
10:35 PM 46.4 °F 39.2 °F 12.2 °F 25% 29.63 in 10.0 mi WSW 18.4 mph 23.0 mph N/A   Overcast
10:55 PM 46.4 °F 39.5 °F 10.4 °F 23% 29.61 in 10.0 mi WSW 17.3 mph - N/A   Scattered Clouds
11:35 PM 44.6 °F 37.8 °F 8.6 °F 23% 29.62 in 10.0 mi SW 15.0 mph 19.6 mph N/A   Clear
11:55 PM 44.6 °F 37.2 °F 8.6 °F 23% 29.62 in 10.0 mi SW 17.3 mph - N/A   Clear